Location: Kalberh�ni
(46.4610°N, 7.2453°E)
Time: 22:26:52
(UTC+00:00)

USA 229 - Pass Details

Date: 23 October 2021
Orbit: 946 x 1266 km, 63.4° (Epoch: 25 November)

Event Time Altitude Azimuth Distance (km) Brightness Sun altitude
Rises 20:00:19 0° 250° (WSW) 3,667 7.1 -36.3°
Reaches altitude 10° 20:03:02 10° 258° (WSW) 2,754 6.4 -36.7°
Maximum altitude 20:09:00 38° 326° (NW) 1,541 4.8 -37.6°
Enters shadow 20:09:52 36° 343° (NNW) 1,588 4.8 -37.8°
